Time,TemperatureF,DewpointF,PressureIn,WindDirection,WindDirectionDegrees,WindSpeedMPH,WindSpeedGustMPH,Humidity,HourlyPrecipIn,Conditions,Clouds,dailyrainin,SoftwareType,DateUTC
2013-05-11 00:03:00,57.9,41.8,29.92,NNW,341,3.0,5.0,55,0.00,CLR,CLR,0.25,WeatherDisplay:10.37,2013-05-11 04:03:00,
2013-05-11 00:18:00,57.7,43.1,29.95,NNW,342,1.0,3.0,58,0.00,CLR,CLR,0.25,WeatherDisplay:10.37,2013-05-11 04:18:00,
2013-05-11 00:33:00,57.6,43.3,29.92,North,355,2.0,4.0,59,0.00,CLR,CLR,0.25,WeatherDisplay:10.37,2013-05-11 04:33:00,
2013-05-11 00:48:00,57.2,42.5,29.92,NNW,338,2.0,4.0,58,0.00,CLR,CLR,0.25,WeatherDisplay:10.37,2013-05-11 04:48:00,
2013-05-11 01:03:00,57.2,42.5,29.95,NW,325,0.0,4.0,58,0.00,CLR,CLR,0.25,WeatherDisplay:10.37,2013-05-11 05:03:00,
2013-05-11 01:18:00,56.8,41.3,29.95,North,8,1.0,4.0,56,0.00,CLR,CLR,0.25,WeatherDisplay:10.37,2013-05-11 05:18:00,
2013-05-11 01:33:00,56.7,40.2,29.95,NW,326,3.0,4.0,54,0.00,CLR,CLR,0.25,WeatherDisplay:10.37,2013-05-11 05:33:00,
2013-05-11 01:48:00,56.5,41.4,29.95,NW,305,2.0,3.0,57,0.00,CLR,CLR,0.25,WeatherDisplay:10.37,2013-05-11 05:48:00,
2013-05-11 02:03:00,55.8,35.8,29.95,NNE,24,3.0,6.0,47,0.00,CLR,CLR,0.25,WeatherDisplay:10.37,2013-05-11 06:03:00,
2013-05-11 02:18:00,54.9,35.5,29.95,NNW,336,1.0,8.0,48,0.00,CLR,CLR,0.25,WeatherDisplay:10.37,2013-05-11 06:18:00,
2013-05-11 02:33:00,54.7,37.9,29.95,NW,318,1.0,7.0,53,0.00,CLR,CLR,0.25,WeatherDisplay:10.37,2013-05-11 06:33:00,
2013-05-11 02:48:00,54.7,38.8,29.95,NW,314,2.0,3.0,55,0.00,CLR,CLR,0.25,WeatherDisplay:10.37,2013-05-11 06:48:00,
2013-05-11 03:03:00,54.9,39.0,29.95,NNE,20,1.0,3.0,55,0.00,CLR,CLR,0.25,WeatherDisplay:10.37,2013-05-11 07:03:00,
2013-05-11 03:18:00,55.0,37.2,29.92,NNW,345,2.0,3.0,51,0.00,CLR,CLR,0.25,WeatherDisplay:10.37,2013-05-11 07:18:00,
2013-05-11 03:33:00,55.2,36.4,29.92,North,6,1.0,6.0,49,0.00,CLR,CLR,0.25,WeatherDisplay:10.37,2013-05-11 07:33:00,
2013-05-11 03:48:00,55.6,35.1,29.92,North,9,2.0,5.0,46,0.00,CLR,CLR,0.25,WeatherDisplay:10.37,2013-05-11 07:48:00,
2013-05-11 03:49:00,55.8,54.6,29.95,WNW,293,0.0,3.0,96,0.00,OVC,OVC,0.25,WeatherDisplay:10.37,2013-05-11 07:49:00,
2013-05-11 03:50:00,55.8,54.6,29.95,WNW,293,0.0,0.0,96,0.00,OVC,OVC,0.25,WeatherDisplay:10.37,2013-05-11 07:50:00,
2013-05-11 03:51:00,55.8,54.6,29.95,WNW,293,0.0,0.0,96,0.00,OVC,OVC,0.25,WeatherDisplay:10.37,2013-05-11 07:51:00,
2013-05-11 03:52:00,55.8,54.6,29.95,WNW,293,0.0,0.0,96,0.00,OVC,OVC,0.25,WeatherDisplay:10.37,2013-05-11 07:52:00,
2013-05-11 03:53:00,55.8,54.6,29.95,WNW,293,0.0,0.0,96,0.00,OVC,OVC,0.25,WeatherDisplay:10.37,2013-05-11 07:53:00,
2013-05-11 03:54:00,55.8,54.6,29.95,WNW,293,0.0,0.0,96,0.00,OVC,OVC,0.25,WeatherDisplay:10.37,2013-05-11 07:54:00,
2013-05-11 03:55:00,55.8,54.6,29.95,WNW,293,0.0,0.0,96,0.00,OVC,OVC,0.25,WeatherDisplay:10.37,2013-05-11 07:55:00,
2013-05-11 03:56:00,55.8,54.6,29.95,WNW,293,0.0,0.0,96,0.00,OVC,OVC,0.25,WeatherDisplay:10.37,2013-05-11 07:56:00,
2013-05-11 03:57:00,55.8,54.6,29.95,WNW,293,0.0,0.0,96,0.00,OVC,OVC,0.25,WeatherDisplay:10.37,2013-05-11 07:57:00,
2013-05-11 03:58:00,55.8,54.6,29.95,WNW,293,0.0,0.0,96,0.00,OVC,OVC,0.25,WeatherDisplay:10.37,2013-05-11 07:58:00,
2013-05-11 03:59:00,55.8,54.6,29.95,WNW,293,0.0,0.0,96,0.00,OVC,OVC,0.25,WeatherDisplay:10.37,2013-05-11 07:59:00,
2013-05-11 04:00:00,55.8,54.6,29.95,WNW,293,0.0,0.0,96,0.00,OVC,OVC,0.25,WeatherDisplay:10.37,2013-05-11 08:00:00,
2013-05-11 04:01:00,55.8,54.6,29.95,WNW,293,0.0,0.0,96,0.00,OVC,OVC,0.25,WeatherDisplay:10.37,2013-05-11 08:01:00,
2013-05-11 04:02:00,55.8,54.6,29.95,WNW,293,0.0,0.0,96,0.00,OVC,OVC,0.25,WeatherDisplay:10.37,2013-05-11 08:02:00,
2013-05-11 04:03:00,55.8,54.6,29.95,WNW,293,0.0,0.0,96,0.00,OVC,OVC,0.25,WeatherDisplay:10.37,2013-05-11 08:03:00,
2013-05-11 08:50:00,55.6,35.1,29.92,NW,315,7.6,7.6,46,0.00,CLR,,0.25,WeatherDisplay:10.37,2013-05-11 12:50:00,
2013-05-11 08:52:00,55.8,51.6,29.95,West,270,2.3,2.3,86,0.00,-RA,,0.25,WeatherDisplay:10.37,2013-05-11 12:52:00,
2013-05-11 08:53:00,55.8,51.9,29.95,NW,315,3.1,3.1,87,0.00,-RA,,0.25,WeatherDisplay:10.37,2013-05-11 12:53:00,
2013-05-11 08:58:00,55.6,51.1,29.95,NE,45,3.5,3.5,85,0.00,-RA,,0.25,WeatherDisplay:10.37,2013-05-11 12:58:00,
2013-05-11 09:03:00,55.8,54.3,29.95,North,0,3.5,3.5,95,0.00,OVC,,0.25,WeatherDisplay:10.37,2013-05-11 13:03:00,
2013-05-11 09:08:00,55.9,54.2,29.95,SSW,202,2.9,2.9,94,0.00,OVC,,0.25,WeatherDisplay:10.37,2013-05-11 13:08:00,
2013-05-11 09:13:00,55.9,54.2,29.95,SW,225,2.3,0.0,94,0.00,OVC,,0.25,WeatherDisplay:10.37,2013-05-11 13:13:00,
2013-05-11 09:18:00,55.9,54.2,29.95,East,90,1.6,1.6,94,0.00,OVC,,0.25,WeatherDisplay:10.37,2013-05-11 13:18:00,
2013-05-11 09:23:00,55.9,53.9,29.95,North,0,4.6,4.6,93,0.00,OVC,,0.25,WeatherDisplay:10.37,2013-05-11 13:23:00,
2013-05-11 09:28:00,55.8,53.8,29.95,North,0,2.3,2.3,93,0.00,OVC,,0.25,WeatherDisplay:10.37,2013-05-11 13:28:00,
2013-05-11 09:33:00,55.8,53.2,29.95,SW,225,1.2,1.2,91,0.00,OVC,,0.25,WeatherDisplay:10.37,2013-05-11 13:33:00,
2013-05-11 09:38:00,55.9,53.4,29.95,WNW,292,2.3,2.4,91,0.00,OVC,,0.25,WeatherDisplay:10.37,2013-05-11 13:38:00,
2013-05-11 09:43:00,55.8,52.9,29.95,East,90,6.9,6.9,90,0.00,OVC,,0.25,WeatherDisplay:10.37,2013-05-11 13:43:00,
2013-05-11 09:48:00,55.9,53.4,29.95,North,0,5.8,5.8,91,0.00,OVC,,0.25,WeatherDisplay:10.37,2013-05-11 13:48:00,
2013-05-11 09:53:00,56.3,53.7,29.95,NW,315,3.5,3.5,91,0.00,OVC,,0.25,WeatherDisplay:10.37,2013-05-11 13:53:00,
2013-05-11 09:58:00,56.8,54.5,29.95,SE,135,1.2,1.4,92,0.00,OVC,,0.25,WeatherDisplay:10.37,2013-05-11 13:58:00,
2013-05-11 10:03:00,57.0,54.1,29.95,WNW,292,3.5,3.5,90,0.00,OVC,,0.25,WeatherDisplay:10.37,2013-05-11 14:03:00,
2013-05-11 10:08:00,57.6,54.0,29.95,South,180,2.3,2.3,88,0.00,OVC,,0.25,WeatherDisplay:10.37,2013-05-11 14:08:00,
2013-05-11 10:13:00,57.9,54.4,29.95,WSW,248,2.3,2.3,88,0.00,OVC,,0.25,WeatherDisplay:10.37,2013-05-11 14:13:00,
2013-05-11 10:18:00,57.6,51.4,29.95,NW,315,4.7,4.7,80,0.00,OVC,,0.25,WeatherDisplay:10.37,2013-05-11 14:18:00,
2013-05-11 10:23:00,57.9,51.8,29.95,NW,315,2.3,2.3,80,0.00,OVC,,0.25,WeatherDisplay:10.37,2013-05-11 14:23:00,
2013-05-11 10:28:00,66.2,64.7,29.95,West,270,3.5,3.5,95,0.00,OVC,,0.25,WeatherDisplay:10.37,2013-05-11 14:28:00,
2013-05-11 10:33:00,66.2,64.7,29.95,West,270,3.5,3.5,95,0.00,OVC,,0.25,WeatherDisplay:10.37,2013-05-11 14:33:00,
2013-05-11 10:38:00,66.2,64.7,29.95,NW,315,4.0,4.0,95,0.00,OVC,,0.25,WeatherDisplay:10.37,2013-05-11 14:38:00,
2013-05-11 10:43:00,66.2,64.7,29.95,North,0,3.5,3.5,95,0.00,OVC,,0.25,WeatherDisplay:10.37,2013-05-11 14:43:00,
2013-05-11 10:48:00,61.2,46.7,29.98,SW,225,3.1,3.1,59,0.00,OVC,,0.25,WeatherDisplay:10.37,2013-05-11 14:48:00,
2013-05-11 10:53:00,59.5,53.0,29.98,WSW,248,3.8,3.8,79,0.00,OVC,,0.25,WeatherDisplay:10.37,2013-05-11 14:53:00,
2013-05-11 10:58:00,58.5,53.0,29.98,West,270,3.5,3.5,82,0.00,OVC,,0.25,WeatherDisplay:10.37,2013-05-11 14:58:00,
2013-05-11 11:03:00,58.3,52.8,29.98,NE,45,3.5,3.5,82,0.00,OVC,,0.25,WeatherDisplay:10.37,2013-05-11 15:03:00,
2013-05-11 11:08:00,57.6,53.4,29.98,SW,225,2.3,2.3,86,0.00,OVC,,0.25,WeatherDisplay:10.37,2013-05-11 15:08:00,
2013-05-11 11:13:00,58.1,53.9,29.98,North,0,2.3,2.3,86,0.00,OVC,,0.25,WeatherDisplay:10.37,2013-05-11 15:13:00,
2013-05-11 11:18:00,57.7,53.6,29.98,West,270,2.3,2.3,86,0.00,-DZ,,0.25,WeatherDisplay:10.37,2013-05-11 15:18:00,
2013-05-11 11:23:00,57.2,53.0,29.98,North,0,2.3,2.4,86,0.00,-DZ,,0.25,WeatherDisplay:10.37,2013-05-11 15:23:00,
2013-05-11 11:28:00,56.3,53.4,29.98,WSW,248,4.6,4.6,90,0.00,-DZ,,0.25,WeatherDisplay:10.37,2013-05-11 15:28:00,
2013-05-11 11:33:00,55.9,53.0,30.00,SW,225,4.7,4.7,90,0.00,-DZ,,0.25,WeatherDisplay:10.37,2013-05-11 15:33:00,
2013-05-11 11:38:00,55.8,52.9,30.00,West,270,4.6,4.6,90,0.00,-DZ,,0.25,WeatherDisplay:10.37,2013-05-11 15:38:00,
2013-05-11 11:43:00,56.3,53.4,30.00,East,90,3.1,3.1,90,0.00,-DZ,,0.25,WeatherDisplay:10.37,2013-05-11 15:43:00,
2013-05-11 11:48:00,56.7,53.8,30.00,West,270,3.5,3.5,90,0.00,OVC,,0.25,WeatherDisplay:10.37,2013-05-11 15:48:00,
2013-05-11 11:53:00,57.7,54.8,30.00,NNW,338,2.3,2.4,90,0.00,OVC,,0.25,WeatherDisplay:10.37,2013-05-11 15:53:00,
2013-05-11 11:58:00,58.1,53.9,30.00,NW,315,5.8,5.8,86,0.00,OVC,,0.25,WeatherDisplay:10.37,2013-05-11 15:58:00,
2013-05-11 12:03:00,57.6,53.4,29.98,NNW,338,5.8,5.8,86,0.00,OVC,,0.25,WeatherDisplay:10.37,2013-05-11 16:03:00,
2013-05-11 12:08:00,57.6,54.0,29.98,North,0,3.5,3.5,88,0.00,OVC,,0.25,WeatherDisplay:10.37,2013-05-11 16:08:00,
2013-05-11 12:13:00,57.2,53.0,29.98,SW,225,4.6,4.6,86,0.00,OVC,,0.25,WeatherDisplay:10.37,2013-05-11 16:13:00,
2013-05-11 12:18:00,56.8,53.9,29.98,NW,315,4.6,4.6,90,0.00,OVC,,0.25,WeatherDisplay:10.37,2013-05-11 16:18:00,
2013-05-11 12:23:00,56.8,53.9,29.98,West,270,3.5,3.5,90,0.00,OVC,,0.25,WeatherDisplay:10.37,2013-05-11 16:23:00,
2013-05-11 12:28:00,57.0,52.9,29.98,West,270,4.6,4.6,86,0.00,OVC,,0.25,WeatherDisplay:10.37,2013-05-11 16:28:00,
2013-05-11 12:33:00,56.8,53.9,29.98,West,271,2.0,0.0,90,0.00,OVC,OVC,0.25,WeatherDisplay:10.37,2013-05-11 16:33:00,
2013-05-11 12:38:00,58.5,54.3,29.98,NE,45,4.6,4.6,86,0.00,OVC,,0.25,WeatherDisplay:10.37,2013-05-11 16:38:00,
2013-05-11 12:43:00,58.5,53.0,29.98,West,270,5.8,5.8,82,0.00,OVC,,0.25,WeatherDisplay:10.37,2013-05-11 16:43:00,
2013-05-11 12:48:00,59.0,54.8,29.98,West,270,4.6,4.6,86,0.00,OVC,,0.25,WeatherDisplay:10.37,2013-05-11 16:48:00,
2013-05-11 12:53:00,59.2,55.0,29.98,West,270,5.8,5.8,86,0.00,OVC,,0.25,WeatherDisplay:10.37,2013-05-11 16:53:00,
2013-05-11 12:58:00,58.5,54.3,29.98,NW,315,4.6,4.6,86,0.00,OVC,,0.25,WeatherDisplay:10.37,2013-05-11 16:58:00,
2013-05-11 13:03:00,58.5,54.3,30.00,SW,225,4.6,4.6,86,0.00,OVC,,0.25,WeatherDisplay:10.37,2013-05-11 17:03:00,
2013-05-11 13:08:00,58.8,54.6,30.00,South,180,2.3,2.3,86,0.00,OVC,,0.25,WeatherDisplay:10.37,2013-05-11 17:08:00,
2013-05-11 13:13:00,58.8,53.3,30.00,NW,315,2.3,2.3,82,0.00,OVC,,0.25,WeatherDisplay:10.37,2013-05-11 17:13:00,
2013-05-11 13:18:00,59.0,54.8,29.99,West,272,2.0,0.0,86,0.00,OVC,OVC,0.25,WeatherDisplay:10.37,2013-05-11 17:18:00,
2013-05-11 13:23:00,58.3,52.8,29.98,NW,315,4.6,4.6,82,0.00,OVC,,0.25,WeatherDisplay:10.37,2013-05-11 17:23:00,
2013-05-11 13:28:00,58.5,53.0,29.98,North,0,2.3,2.3,82,0.00,OVC,,0.25,WeatherDisplay:10.37,2013-05-11 17:28:00,
2013-05-11 13:33:00,58.1,52.6,29.98,NNW,338,4.6,4.6,82,0.00,OVC,,0.25,WeatherDisplay:10.37,2013-05-11 17:33:00,
2013-05-11 13:38:00,58.1,52.6,29.98,North,0,8.1,8.1,82,0.00,OVC,,0.25,WeatherDisplay:10.37,2013-05-11 17:38:00,
2013-05-11 13:43:00,58.5,53.0,29.98,West,270,5.8,5.8,82,0.00,OVC,,0.25,WeatherDisplay:10.37,2013-05-11 17:43:00,
2013-05-11 13:48:00,59.2,53.7,29.98,WNW,292,8.1,8.1,82,0.00,OVC,,0.25,WeatherDisplay:10.37,2013-05-11 17:48:00,
2013-05-11 13:53:00,59.0,53.5,29.98,West,270,11.2,11.2,82,0.00,OVC,,0.25,WeatherDisplay:10.37,2013-05-11 17:53:00,
2013-05-11 13:58:00,58.6,53.2,29.98,West,270,5.8,5.8,82,0.00,OVC,,0.25,WeatherDisplay:10.37,2013-05-11 17:58:00,
2013-05-11 14:03:00,59.2,53.7,29.99,WNW,287,5.0,0.0,82,0.00,OVC,OVC,0.25,WeatherDisplay:10.37,2013-05-11 18:03:00,
2013-05-11 14:08:00,58.6,53.2,30.00,WSW,248,8.1,8.1,82,0.00,OVC,,0.25,WeatherDisplay:10.37,2013-05-11 18:08:00,
2013-05-11 14:13:00,60.3,56.7,30.00,SW,225,4.6,4.6,88,0.00,OVC,,0.25,WeatherDisplay:10.37,2013-05-11 18:13:00,
2013-05-11 14:18:00,58.6,53.2,30.00,West,270,7.6,7.6,82,0.00,OVC,,0.25,WeatherDisplay:10.37,2013-05-11 18:18:00,
2013-05-11 14:23:00,59.4,53.9,30.00,NE,45,8.1,8.1,82,0.00,OVC,,0.25,WeatherDisplay:10.37,2013-05-11 18:23:00,
2013-05-11 14:28:00,61.3,55.8,30.00,NW,315,5.6,5.6,82,0.00,OVC,,0.25,WeatherDisplay:10.37,2013-05-11 18:28:00,
2013-05-11 14:33:00,60.6,55.1,29.98,SW,225,3.8,3.8,82,0.00,OVC,,0.25,WeatherDisplay:10.37,2013-05-11 18:33:00,
2013-05-11 14:38:00,61.7,56.1,29.98,North,0,2.3,2.3,82,0.00,OVC,,0.25,WeatherDisplay:10.37,2013-05-11 18:38:00,
2013-05-11 14:43:00,60.8,55.3,29.98,SW,225,3.5,4.3,82,0.00,OVC,,0.25,WeatherDisplay:10.37,2013-05-11 18:43:00,
2013-05-11 14:48:00,60.8,55.3,29.98,NW,315,4.6,4.6,82,0.00,OVC,,0.25,WeatherDisplay:10.37,2013-05-11 18:48:00,
2013-05-11 14:53:00,61.2,55.6,29.98,NE,45,5.8,5.8,82,0.00,OVC,,0.25,WeatherDisplay:10.37,2013-05-11 18:53:00,
2013-05-11 14:58:00,61.9,56.3,29.98,West,270,5.8,5.8,82,0.00,OVC,,0.25,WeatherDisplay:10.37,2013-05-11 18:58:00,
2013-05-11 15:03:00,60.6,55.1,29.98,WSW,248,4.6,4.6,82,0.00,OVC,,0.25,WeatherDisplay:10.37,2013-05-11 19:03:00,
2013-05-11 15:08:00,61.2,55.6,29.98,West,270,5.8,5.8,82,0.00,OVC,,0.25,WeatherDisplay:10.37,2013-05-11 19:08:00,
2013-05-11 15:13:00,62.4,56.9,29.98,WNW,292,5.9,5.9,82,0.00,OVC,,0.25,WeatherDisplay:10.37,2013-05-11 19:13:00,
2013-05-11 15:18:00,62.2,56.7,29.98,West,270,3.6,3.6,82,0.00,OVC,,0.25,WeatherDisplay:10.37,2013-05-11 19:18:00,
2013-05-11 15:23:00,63.0,56.7,29.98,North,0,8.1,8.1,80,0.00,OVC,,0.25,WeatherDisplay:10.37,2013-05-11 19:23:00,
2013-05-11 15:27:00,61.2,53.9,29.98,ENE,68,8.1,8.1,77,0.00,OVC,,0.25,WeatherDisplay:10.37,2013-05-11 19:27:00,
2013-05-11 15:32:00,60.8,55.3,29.98,WNW,292,6.9,6.9,82,0.00,OVC,,0.25,WeatherDisplay:10.37,2013-05-11 19:32:00,
2013-05-11 15:37:00,60.4,54.9,29.98,SSW,202,8.1,8.1,82,0.00,OVC,,0.25,WeatherDisplay:10.37,2013-05-11 19:37:00,
2013-05-11 15:42:00,60.1,54.6,29.98,West,270,8.1,8.1,82,0.00,OVC,,0.25,WeatherDisplay:10.37,2013-05-11 19:42:00,
2013-05-11 15:47:00,61.0,55.4,29.98,SW,225,5.8,5.8,82,0.00,OVC,,0.25,WeatherDisplay:10.37,2013-05-11 19:47:00,
2013-05-11 15:52:00,61.0,55.4,29.98,West,270,5.8,5.8,82,0.00,OVC,,0.25,WeatherDisplay:10.37,2013-05-11 19:52:00,
2013-05-11 15:57:00,61.2,55.6,29.98,NE,45,4.6,4.6,82,0.00,OVC,,0.25,WeatherDisplay:10.37,2013-05-11 19:57:00,
2013-05-11 16:02:00,60.4,54.9,29.98,NW,315,4.6,4.7,82,0.00,OVC,,0.25,WeatherDisplay:10.37,2013-05-11 20:02:00,
2013-05-11 16:07:00,61.3,55.8,29.98,NNW,338,3.5,3.5,82,0.00,OVC,,0.25,WeatherDisplay:10.37,2013-05-11 20:07:00,
2013-05-11 16:12:00,61.9,56.3,29.98,West,270,5.8,5.8,82,0.00,OVC,,0.25,WeatherDisplay:10.37,2013-05-11 20:12:00,
2013-05-11 16:17:00,61.9,56.3,29.95,WSW,248,8.1,8.1,82,0.00,OVC,,0.25,WeatherDisplay:10.37,2013-05-11 20:17:00,
2013-05-11 16:22:00,60.6,55.1,29.95,WNW,292,8.1,8.1,82,0.00,OVC,,0.25,WeatherDisplay:10.37,2013-05-11 20:22:00,
2013-05-11 16:27:00,61.7,56.1,29.95,WSW,248,6.9,6.9,82,0.00,OVC,,0.25,WeatherDisplay:10.37,2013-05-11 20:27:00,
2013-05-11 16:32:00,62.1,56.5,29.98,NW,315,3.5,3.8,82,0.00,OVC,,0.25,WeatherDisplay:10.37,2013-05-11 20:32:00,
2013-05-11 16:37:00,61.7,56.1,29.98,West,270,4.6,4.6,82,0.00,OVC,,0.25,WeatherDisplay:10.37,2013-05-11 20:37:00,
2013-05-11 16:42:00,62.1,56.5,29.98,West,270,4.6,4.6,82,0.00,OVC,,0.25,WeatherDisplay:10.37,2013-05-11 20:42:00,
2013-05-11 16:47:00,63.9,57.6,29.98,WSW,248,3.8,3.8,80,0.00,OVC,,0.25,WeatherDisplay:10.37,2013-05-11 20:47:00,
2013-05-11 16:52:00,63.1,56.9,29.98,West,270,4.6,4.6,80,0.00,OVC,,0.25,WeatherDisplay:10.37,2013-05-11 20:52:00,
2013-05-11 16:57:00,62.1,54.8,29.98,SW,225,4.6,4.6,77,0.00,OVC,,0.25,WeatherDisplay:10.37,2013-05-11 20:57:00,
2013-05-11 17:02:00,62.6,56.3,29.98,SW,225,5.8,5.8,80,0.00,OVC,,0.25,WeatherDisplay:10.37,2013-05-11 21:02:00,
2013-05-11 17:07:00,62.1,56.5,29.98,WSW,248,5.8,5.8,82,0.00,OVC,,0.25,WeatherDisplay:10.37,2013-05-11 21:07:00,
2013-05-11 17:12:00,62.6,56.3,29.98,WSW,248,5.8,5.8,80,0.00,OVC,,0.25,WeatherDisplay:10.37,2013-05-11 21:12:00,
2013-05-11 17:17:00,63.5,57.2,29.98,North,0,5.8,5.8,80,0.00,SCT,,0.25,WeatherDisplay:10.37,2013-05-11 21:17:00,
2013-05-11 17:22:00,64.0,56.7,29.98,NE,45,3.5,3.5,77,0.00,SCT,,0.25,WeatherDisplay:10.37,2013-05-11 21:22:00,
2013-05-11 17:27:00,62.6,56.3,29.98,WSW,248,3.5,3.5,80,0.00,SCT,,0.25,WeatherDisplay:10.37,2013-05-11 21:27:00,
2013-05-11 17:32:00,63.1,56.9,29.95,SW,225,5.9,5.9,80,0.00,SCT,,0.25,WeatherDisplay:10.37,2013-05-11 21:32:00,
2013-05-11 17:37:00,63.7,56.3,29.95,WNW,292,8.1,8.1,77,0.00,SCT,,0.25,WeatherDisplay:10.37,2013-05-11 21:37:00,
2013-05-11 17:42:00,64.4,56.7,29.95,SW,225,4.7,4.7,76,0.00,SCT,,0.25,WeatherDisplay:10.37,2013-05-11 21:42:00,
2013-05-11 17:47:00,65.7,57.9,29.95,NW,315,2.3,2.3,76,0.00,SCT,,0.25,WeatherDisplay:10.37,2013-05-11 21:47:00,
2013-05-11 17:52:00,64.8,57.0,29.95,SW,225,5.8,5.8,76,0.00,SCT,,0.25,WeatherDisplay:10.37,2013-05-11 21:52:00,
2013-05-11 17:57:00,64.6,56.8,29.95,WSW,248,5.8,5.8,76,0.00,SCT,,0.25,WeatherDisplay:10.37,2013-05-11 21:57:00,
2013-05-11 18:02:00,63.9,56.5,29.98,West,270,4.6,4.6,77,0.00,BKN,,0.25,WeatherDisplay:10.37,2013-05-11 22:02:00,
2013-05-11 18:07:00,64.2,57.9,29.98,NNW,338,2.6,2.6,80,0.00,BKN,,0.25,WeatherDisplay:10.37,2013-05-11 22:07:00,
2013-05-11 18:12:00,64.6,56.8,29.98,West,270,4.6,4.6,76,0.00,BKN,,0.25,WeatherDisplay:10.37,2013-05-11 22:12:00,
2013-05-11 18:17:00,64.2,56.9,29.98,WNW,292,4.6,4.6,77,0.00,BKN,,0.25,WeatherDisplay:10.37,2013-05-11 22:17:00,
2013-05-11 18:22:00,63.9,56.5,29.98,West,270,4.6,4.6,77,0.00,BKN,,0.25,WeatherDisplay:10.37,2013-05-11 22:22:00,
2013-05-11 18:27:00,64.4,56.7,29.98,WSW,248,5.9,5.9,76,0.00,BKN,,0.25,WeatherDisplay:10.37,2013-05-11 22:27:00,
2013-05-11 18:32:00,63.7,56.3,29.95,WSW,248,5.8,5.8,77,0.00,BKN,,0.25,WeatherDisplay:10.37,2013-05-11 22:32:00,
2013-05-11 18:37:00,63.5,56.2,29.95,SSW,202,5.8,5.8,77,0.00,BKN,,0.25,WeatherDisplay:10.37,2013-05-11 22:37:00,
2013-05-11 18:42:00,63.3,56.0,29.95,WSW,248,6.9,6.9,77,0.00,BKN,,0.25,WeatherDisplay:10.37,2013-05-11 22:42:00,
2013-05-11 18:47:00,63.0,55.6,29.95,WSW,248,5.8,5.8,77,0.00,BKN,,0.25,WeatherDisplay:10.37,2013-05-11 22:47:00,
2013-05-11 18:52:00,63.1,55.8,29.95,West,270,3.5,3.5,77,0.00,BKN,,0.25,WeatherDisplay:10.37,2013-05-11 22:52:00,
2013-05-11 18:57:00,63.0,55.6,29.95,West,270,5.8,5.8,77,0.00,BKN,,0.25,WeatherDisplay:10.37,2013-05-11 22:57:00,
2013-05-11 19:02:00,62.4,55.1,29.95,West,270,4.6,4.6,77,0.00,CLR,,0.25,WeatherDisplay:10.37,2013-05-11 23:02:00,
2013-05-11 19:07:00,62.8,55.5,29.95,SSW,202,3.8,3.8,77,0.00,CLR,,0.25,WeatherDisplay:10.37,2013-05-11 23:07:00,
2013-05-11 19:12:00,62.4,55.1,29.95,South,180,3.5,3.5,77,0.00,CLR,,0.25,WeatherDisplay:10.37,2013-05-11 23:12:00,
2013-05-11 19:17:00,62.2,54.9,29.92,West,270,5.8,5.8,77,0.00,CLR,,0.25,WeatherDisplay:10.37,2013-05-11 23:17:00,
2013-05-11 19:22:00,62.1,54.8,29.92,SW,225,3.5,3.5,77,0.00,CLR,,0.25,WeatherDisplay:10.37,2013-05-11 23:22:00,
2013-05-11 19:27:00,62.2,54.9,29.92,WSW,248,2.4,2.4,77,0.00,CLR,,0.25,WeatherDisplay:10.37,2013-05-11 23:27:00,
2013-05-11 19:32:00,61.9,54.6,29.95,South,180,3.6,3.6,77,0.00,CLR,,0.25,WeatherDisplay:10.37,2013-05-11 23:32:00,
2013-05-11 19:37:00,61.7,54.4,29.95,West,270,3.5,3.5,77,0.00,CLR,,0.25,WeatherDisplay:10.37,2013-05-11 23:37:00,
2013-05-11 19:42:00,61.5,54.2,29.95,West,270,1.2,2.0,77,0.00,CLR,,0.25,WeatherDisplay:10.37,2013-05-11 23:42:00,
2013-05-11 19:47:00,61.2,53.9,29.92,SW,225,3.5,3.5,77,0.00,CLR,,0.25,WeatherDisplay:10.37,2013-05-11 23:47:00,
2013-05-11 19:52:00,61.2,53.9,29.92,SW,225,3.5,3.5,77,0.00,CLR,,0.25,WeatherDisplay:10.37,2013-05-11 23:52:00,
2013-05-11 19:57:00,61.0,53.7,29.92,WSW,248,3.5,3.5,77,0.00,CLR,,0.25,WeatherDisplay:10.37,2013-05-11 23:57:00,
2013-05-11 20:02:00,60.8,53.5,29.95,SW,225,3.5,3.5,77,0.00,OVC,,0.25,WeatherDisplay:10.37,2013-05-12 00:02:00,
2013-05-11 20:07:00,60.8,53.5,29.95,SW,225,3.5,3.5,77,0.00,OVC,,0.25,WeatherDisplay:10.37,2013-05-12 00:07:00,
2013-05-11 20:12:00,60.6,53.4,29.95,SW,225,2.4,2.4,77,0.00,OVC,,0.25,WeatherDisplay:10.37,2013-05-12 00:12:00,
2013-05-11 20:17:00,60.4,53.2,29.95,SW,225,3.5,3.5,77,0.00,OVC,,0.25,WeatherDisplay:10.37,2013-05-12 00:17:00,
2013-05-11 20:22:00,60.4,53.2,29.95,SW,225,3.5,3.5,77,0.00,OVC,,0.25,WeatherDisplay:10.37,2013-05-12 00:22:00,
2013-05-11 20:27:00,60.3,53.0,29.95,South,180,4.6,4.6,77,0.00,OVC,,0.25,WeatherDisplay:10.37,2013-05-12 00:27:00,
2013-05-11 20:32:00,60.3,53.0,29.95,South,180,3.5,3.5,77,0.00,OVC,,0.25,WeatherDisplay:10.37,2013-05-12 00:32:00,
2013-05-11 20:37:00,60.1,52.8,29.95,SW,225,3.5,3.5,77,0.00,OVC,,0.25,WeatherDisplay:10.37,2013-05-12 00:37:00,
2013-05-11 20:42:00,60.1,52.8,29.95,SW,225,3.5,3.5,77,0.00,OVC,,0.25,WeatherDisplay:10.37,2013-05-12 00:42:00,
2013-05-11 20:47:00,60.1,52.8,29.98,West,270,4.6,4.6,77,0.00,OVC,,0.25,WeatherDisplay:10.37,2013-05-12 00:47:00,
2013-05-11 20:52:00,59.7,52.5,29.98,SW,225,4.9,4.9,77,0.00,OVC,,0.25,WeatherDisplay:10.37,2013-05-12 00:52:00,
2013-05-11 20:57:00,59.4,52.1,29.98,SW,225,3.5,3.5,77,0.00,OVC,,0.25,WeatherDisplay:10.37,2013-05-12 00:57:00,
2013-05-11 21:02:00,59.0,51.8,29.95,SW,225,2.9,2.9,77,0.00,OVC,,0.25,WeatherDisplay:10.37,2013-05-12 01:02:00,
2013-05-11 21:07:00,58.6,51.4,29.95,West,270,2.3,2.3,77,0.00,OVC,,0.25,WeatherDisplay:10.37,2013-05-12 01:07:00,
2013-05-11 21:13:00,58.5,51.3,29.95,NW,315,3.1,3.1,77,0.00,OVC,,0.25,WeatherDisplay:10.37,2013-05-12 01:13:00,
2013-05-11 21:18:00,58.3,51.1,29.98,West,270,1.2,1.2,77,0.00,OVC,,0.25,WeatherDisplay:10.37,2013-05-12 01:18:00,
2013-05-11 21:23:00,57.9,50.8,29.98,SW,225,2.3,2.3,77,0.00,OVC,,0.25,WeatherDisplay:10.37,2013-05-12 01:23:00,
2013-05-11 21:28:00,57.7,50.6,29.98,West,270,3.5,3.5,77,0.00,OVC,,0.25,WeatherDisplay:10.37,2013-05-12 01:28:00,
2013-05-11 21:33:00,57.7,57.2,29.98,WSW,248,3.5,3.5,98,0.00,OVC,,0.25,WeatherDisplay:10.37,2013-05-12 01:33:00,
2013-05-11 21:38:00,57.6,57.6,29.98,SW,225,4.6,4.6,100,0.00,OVC,,0.25,WeatherDisplay:10.37,2013-05-12 01:38:00,
2013-05-11 21:43:00,57.4,57.4,29.98,WSW,248,3.5,3.5,100,0.00,OVC,,0.25,WeatherDisplay:10.37,2013-05-12 01:43:00,
2013-05-11 21:48:00,57.4,57.4,30.00,SW,225,4.6,4.6,100,0.00,OVC,,0.25,WeatherDisplay:10.37,2013-05-12 01:48:00,
2013-05-11 21:53:00,57.2,57.2,30.00,West,270,2.3,2.3,100,0.00,OVC,,0.25,WeatherDisplay:10.37,2013-05-12 01:53:00,
2013-05-11 21:58:00,57.2,57.2,30.00,West,270,1.2,1.2,100,0.00,OVC,,0.25,WeatherDisplay:10.37,2013-05-12 01:58:00,
2013-05-11 22:03:00,57.4,57.4,30.00,SE,135,3.5,3.5,100,0.00,SCT,,0.25,WeatherDisplay:10.37,2013-05-12 02:03:00,
2013-05-11 22:08:00,57.2,57.2,30.00,West,270,3.5,3.5,100,0.00,SCT,,0.25,WeatherDisplay:10.37,2013-05-12 02:08:00,
2013-05-11 22:13:00,57.0,57.0,30.00,North,0,3.6,3.6,100,0.00,SCT,,0.25,WeatherDisplay:10.37,2013-05-12 02:13:00,
2013-05-11 22:18:00,57.0,57.0,30.00,NW,315,4.6,4.6,100,0.00,BKN,,0.25,WeatherDisplay:10.37,2013-05-12 02:18:00,
2013-05-11 22:23:00,57.0,57.0,30.00,West,270,6.9,6.9,100,0.00,BKN,,0.25,WeatherDisplay:10.37,2013-05-12 02:23:00,
2013-05-11 22:28:00,56.8,56.8,30.00,NW,315,6.9,6.9,100,0.00,BKN,,0.25,WeatherDisplay:10.37,2013-05-12 02:28:00,
2013-05-11 22:33:00,56.5,56.5,30.00,North,0,6.9,6.9,100,0.00,BKN,,0.25,WeatherDisplay:10.37,2013-05-12 02:33:00,
2013-05-11 22:38:00,56.3,56.3,30.00,WNW,292,5.8,5.8,100,0.00,BKN,,0.25,WeatherDisplay:10.37,2013-05-12 02:38:00,
2013-05-11 22:43:00,56.1,56.1,30.00,West,270,5.8,5.8,100,0.00,BKN,,0.25,WeatherDisplay:10.37,2013-05-12 02:43:00,
2013-05-11 22:48:00,55.9,55.9,30.03,NNE,22,5.8,5.8,100,0.00,BKN,,0.25,WeatherDisplay:10.37,2013-05-12 02:48:00,
2013-05-11 22:53:00,55.8,55.8,30.03,NNW,338,5.8,5.8,100,0.00,BKN,,0.25,WeatherDisplay:10.37,2013-05-12 02:53:00,
2013-05-11 22:58:00,55.6,55.6,30.03,NW,315,3.8,3.8,100,0.00,BKN,,0.25,WeatherDisplay:10.37,2013-05-12 02:58:00,
2013-05-11 23:03:00,55.4,55.4,30.06,NW,315,5.8,5.8,100,0.00,RA,,0.00,WeatherDisplay:10.37,2013-05-12 03:03:00,
2013-05-11 23:08:00,55.0,55.0,30.06,NW,315,4.0,4.0,100,0.00,RA,,0.00,WeatherDisplay:10.37,2013-05-12 03:08:00,
2013-05-11 23:13:00,54.9,54.9,30.06,NE,45,2.9,2.9,100,0.00,CLR,,0.00,WeatherDisplay:10.37,2013-05-12 03:13:00,
2013-05-11 23:18:00,54.7,54.7,30.06,NE,45,3.5,3.5,100,0.00,CLR,,0.00,WeatherDisplay:10.37,2013-05-12 03:18:00,
2013-05-11 23:23:00,54.3,54.3,30.06,North,0,3.5,3.5,100,0.00,CLR,,0.00,WeatherDisplay:10.37,2013-05-12 03:23:00,
2013-05-11 23:28:00,54.0,54.0,30.06,North,0,2.3,2.3,100,0.00,CLR,,0.00,WeatherDisplay:10.37,2013-05-12 03:28:00,
2013-05-11 23:33:00,53.8,53.8,30.06,NW,315,3.5,3.5,100,0.00,CLR,,0.00,WeatherDisplay:10.37,2013-05-12 03:33:00,
2013-05-11 23:38:00,53.4,53.4,30.06,NNW,338,4.6,4.6,100,0.00,CLR,,0.00,WeatherDisplay:10.37,2013-05-12 03:38:00,
2013-05-11 23:43:00,53.2,53.2,30.06,North,0,3.5,3.5,100,0.00,CLR,,0.00,WeatherDisplay:10.37,2013-05-12 03:43:00,
2013-05-11 23:48:00,53.1,53.1,30.06,NW,315,3.5,3.5,100,0.00,CLR,,0.00,WeatherDisplay:10.37,2013-05-12 03:48:00,
2013-05-11 23:53:00,52.9,52.9,30.06,NW,315,2.9,2.9,100,0.00,CLR,,0.00,WeatherDisplay:10.37,2013-05-12 03:53:00,
2013-05-11 23:58:00,52.3,52.3,30.06,NE,45,2.3,2.3,100,0.00,CLR,,0.00,WeatherDisplay:10.37,2013-05-12 03:58:00,